User: anonymous   Login
Location: Aghk�ilisa
(40.0189°N, 45.0097°E)
Time: 04:43:03
(UTC+00:00)
Language:

DMSP B5D1-3 - Orbit

View from above orbital plane
View from above orbital plane
View from above satellite
View from above satellite

Ground track
Ground track

The orbit data is extracted from the following two-line orbital elements,

1 10820U 78042A   19347.12460826  .00000056  00000-0  34743-4 0  9991
2 10820  98.5428 177.4344 0008707 220.6625 139.3911 14.35280342171721
Epoch (UTC): 13 December 2019 02:59:26
Eccentricity: 0.0008707
inclination: 98.5428°
perigee height: 768 km
apogee height: 780 km
right ascension of ascending node: 177.4344°
argument of perigee: 220.6625°
revolutions per day: 14.35280342
mean anomaly at epoch: 139.3911°
orbit number at epoch: 17172

The dashed part of the orbit path shows where the satellite is in the earth's shadow,  

DLR